Satellite: ISS
Catalog number: 25544
Epoch time:      08346.68796588
Element set:     834
Inclination:      051.6405 deg
RA of node:       186.6824 deg
Eccentricity:    0.0006597
Arg of perigee:   084.4519 deg
Mean anomaly:     275.7769 deg
Mean motion:   15.71820326 rev/day
Decay rate:      4.491e-05 rev/day^2
Epoch rev:           57646
Checksum:              359

Satellite: CO-58
Catalog number: 28895
Epoch time:      08343.71249886
Element set:     187
Inclination:      098.0789 deg
RA of node:       233.4047 deg
Eccentricity:    0.0017045
Arg of perigee:   221.9612 deg
Mean anomaly:     138.0262 deg
Mean motion:   14.59722200 rev/day
Decay rate:        5.0e-07 rev/day^2
Epoch rev:           16594
Checksum:              323

Satellite: FALCON
Catalog number: 30776
Epoch time:      08346.53098909
Element set:     457
Inclination:      035.4327 deg
RA of node:       157.8456 deg
Eccentricity:    0.0000910
Arg of perigee:   022.4204 deg
Mean anomaly:     337.6555 deg
Mean motion:   15.03122954 rev/day
Decay rate:       3.48e-06 rev/day^2
Epoch rev:            9684
Checksum:              304

Satellite: MAST
Catalog number: 31126
Epoch time:      08344.10218530
Element set:     477
Inclination:      098.0188 deg
RA of node:       041.3413 deg
Eccentricity:    0.0095429
Arg of perigee:   149.2951 deg
Mean anomaly:     211.3866 deg
Mean motion:   14.53463550 rev/day
Decay rate:        9.0e-08 rev/day^2
Epoch rev:            8742
Checksum:              284

Satellite: CAPE1
Catalog number: 31130
Epoch time:      08346.15748822
Element set:     474
Inclination:      098.0198 deg
RA of node:       041.9162 deg
Eccentricity:    0.0103269
Arg of perigee:   146.9731 deg
Mean anomaly:     213.7971 deg
Mean motion:   14.52014577 rev/day
Decay rate:        7.0e-08 rev/day^2
Epoch rev:            8740
Checksum:              295

Satellite: COMPASS
Catalog number: 32787
Epoch time:      08345.87506084
Element set:     223
Inclination:      097.9691 deg
RA of node:       045.0535 deg
Eccentricity:    0.0014783
Arg of perigee:   285.9516 deg
Mean anomaly:     074.0048 deg
Mean motion:   14.81512624 rev/day
Decay rate:       3.54e-06 rev/day^2
Epoch rev:            3356
Checksum:              309

Satellite: AAUSAT2
Catalog number: 32788
Epoch time:      08346.46596976
Element set:     224
Inclination:      097.9693 deg
RA of node:       045.6718 deg
Eccentricity:    0.0014253
Arg of perigee:   284.3005 deg
Mean anomaly:     075.6631 deg
Mean motion:   14.81628172 rev/day
Decay rate:       4.33e-06 rev/day^2
Epoch rev:            3365
Checksum:              326

Satellite: DO-64
Catalog number: 32789
Epoch time:      08346.88735188
Element set:     235
Inclination:      097.9729 deg
RA of node:       046.1546 deg
Eccentricity:    0.0014730
Arg of perigee:   281.4671 deg
Mean anomaly:     078.4884 deg
Mean motion:   14.81558314 rev/day
Decay rate:       6.06e-06 rev/day^2
Epoch rev:            3371
Checksum:              346

Satellite: CO-66
Catalog number: 32791
Epoch time:      08346.43760679
Element set:     216
Inclination:      097.9720 deg
RA of node:       045.6389 deg
Eccentricity:    0.0015111
Arg of perigee:   281.3730 deg
Mean anomaly:     078.5788 deg
Mean motion:   14.81358398 rev/day
Decay rate:       2.70e-06 rev/day^2
Epoch rev:            3361
Checksum:              333

Satellite: RS-30
Catalog number: 32953
Epoch time:      08346.32668995
Element set:     180
Inclination:      082.5034 deg
RA of node:       013.4340 deg
Eccentricity:    0.0018095
Arg of perigee:   225.9703 deg
Mean anomaly:     133.9882 deg
Mean motion:   12.42998674 rev/day
Decay rate:        1.0e-07 rev/day^2
Epoch rev:            2505
Checksum:              301

/EX



_______________________________________________
Via the Keps mailing list courtesy of AMSAT-NA
http://amsat.org/mailman/listinfo/keps

--- ViaMAIL!/WC v1.60d
 * Origin: Chowdanet (401-724-4410) telnet://chowdanet.com  (1:323/120)